OPS 4682 DEB, 38375

Orbit data source: Space-Track

OPS 4682 DEB, 38375 is space debris in LEO originally from a launch on Sat, 03 Apr 1965 UTC launched from the Air Force Western Test Range (AFWTR). Debris objects in space refer to the collection of defunct objects orbiting the Earth. Examples of debris include non-operational satellites, rocket bodies, and fragments generated from explosions, collisions, or faulty payload assembly.

Loading next visibility...
Identifier
38375, 1965-027CC
Orbit
LEO
Country
Flag of USUS
Related business
Manufacturer
Unknown
Mission
Spacecraft
Bus & Motor
Unknown
Mass
Unknown
Launch date (UTC)
1965-04-03 (61 years ago)
Launch vehicle
Unknown
Launch site
Air Force Western Test Range (AFWTR)
Object type
Payload
Rocket body
Debris
Shape & HBR
Unknown shape, 0.1 m
Radar Cross Section
Small (<0.1 m²)

Expand to show TLE details & history
Last TLE update: 3 days ago

TLE from 3 days ago
0 OPS 4682 DEB
1 38375U 65027CC  25292.16929646  .00000279  00000-0  96877-3 0  9997
2 38375  90.2421   1.7988 0033843 120.0309 240.4175 12.94806397584936
Epoch: 2025-10-19T04:03Z
TLE epoch observation values (Epoch: 2025-10-19T04:03:47.214Z)
Latitude
0.00002°
Longitude
-87.03774°
Altitude
1,298.247 km
Speed
7.201 km/s
True Right ascension
00h 07m 11s
True Declination
0° 00' 00"
Sunlit
Object was in full shadow at epoch
Visualization orbit readout
Latitude
Unknown
Longitude
Unknown
Altitude
Unknown
Speed
Unknown
Apparent Right ascension
Unknown
Apparent Declination
Unknown
Sunlit
N/A
Visualization observer readout
Local Sidereal Time
12:24:26
Azimuth
Unknown
Elevation
Unknown
Doppler factor
Unknown
Orbital elements
Apogee altitude
1,305.554 km
Perigee altitude
1,253.722 km
Semi-major axis
7,657.775 km
Eccentricity
0.00338
Inclination
90.2421°
RAAN
1.7988°
Arg. of periapsis
120.0309°
True anomaly
240.08095°
Mean anomaly
240.4175°
Eccentric anomaly
240.24915°
Mean motion
3.23884 °/min
Orbital period
111.15 mins
BSTAR
0.00096877
Loading maneuver chart data...
Computing Atmospheric mass density...
Loading historical data...
Loading historical data...
Loading historical data...
Loading historical data...
Loading historical data...
Loading historical data...
Loading historical data...

Documentation

Showing up to 5 results
|